Flag for United Kingdom

Past Weather in Chatham, England, United Kingdom — Yesterday and Last 2 Weeks

Now
68 °F

Sunny.


Feels Like: 68 °F
Forecast: 75 / 53 °F
Wind: 5 mph from South

Location: Southend Airport-On-Sea
Current Time: Sep 21, 2020 at 5:33:38 pm
Latest Report: Sep 21, 2020 at 4:50 pm
Visibility: 10 mi
Pressure30.01 "Hg
Humidity: 60%
Dew Point: 54 °F
Location of ChathamLocation

Past Weather in Chatham — Graph

°F

Chatham Temperature Yesterday

Maximum temperature yesterday: 73 °F (at 2:20 pm)
Minimum temperature yesterday: 55 °F (at 11:20 pm)
Average temperature yesterday: 63 °F

High & Low Weather Summary for the Past Weeks

 TemperatureHumidityPressure
High84 °F (Sep 15, 1:50 pm)100% (Sep 7, 2:20 am)30.39 "Hg (Sep 7, 2:20 am)
Low43 °F (Sep 11, 6:20 am)38% (Sep 9, 10:20 am)29.98 "Hg (Sep 11, 3:50 pm)
Average62 °F74%30.15 "Hg
* Reported Sep 6 4:20 pm — Sep 21 4:20 pm, Chatham. Weather by CustomWeather, © 2020

Note: Actual official high and low records may vary slightly from our data, if they occured in-between our weather recording intervals... More about our weather records

Chatham Weather History for the Previous 24 Hours

Scroll right to see more
 ConditionsComfort  
Time TempWeatherWind HumidityBarometerVisibility
4:20 pm
Mon, Sep 21
68 °FSunny.6 mph64%30.01 "Hg10 mi
3:50 pm70 °FSunny.7 mph60%30.01 "Hg10 mi
3:20 pm68 °FSunny.7 mph64%30.01 "Hg10 mi
2:50 pm70 °FPassing clouds.7 mph64%30.04 "HgN/A
2:20 pm72 °FSunny.2 mph50%30.04 "Hg10 mi
1:50 pm68 °FSunny.2 mph60%30.04 "Hg10 mi
1:20 pm68 °FSunny.3 mph60%30.04 "Hg10 mi
12:50 pm66 °FSunny.3 mph68%30.04 "Hg10 mi
12:20 pm63 °FPassing clouds.3 mph88%30.07 "HgN/A
11:50 am59 °FPartly sunny.5 mph100%30.07 "Hg5 mi
11:20 am57 °FLow clouds.5 mph100%30.07 "Hg4 mi
10:50 am57 °FFog.5 mph100%30.07 "Hg2 mi
10:20 am57 °FFog.5 mph100%30.07 "Hg1 mi
9:50 am55 °FFog.3 mph100%30.07 "Hg1 mi
9:20 am55 °FFog.5 mph100%30.07 "Hg0 mi
8:50 am55 °FFog.3 mph100%30.07 "Hg0 mi
8:20 am54 °FFog.5 mph100%30.07 "Hg0 mi
7:50 am55 °FFog.3 mph100%30.07 "Hg0 mi
7:20 am54 °FFog.3 mph100%30.07 "Hg0 mi
6:50 am54 °FFog.7 mph100%30.07 "Hg0 mi
6:20 am54 °FFog.7 mph100%30.07 "Hg0 mi
5:50 am52 °FFog.6 mph100%30.07 "Hg0 mi
5:20 am52 °FFog.6 mph100%30.07 "Hg0 mi
4:20 am54 °FFog.6 mph100%30.07 "Hg2 mi
12:50 am54 °FClear.3 mph100%30.09 "Hg10 mi
12:20 am54 °FClear.8 mph100%30.09 "Hg10 mi
11:50 pm
Sun, Sep 20
55 °FClear.8 mph94%30.09 "Hg10 mi
11:20 pm55 °FClear.10 mph94%30.09 "Hg10 mi
10:50 pm57 °FClear.10 mph88%30.09 "Hg10 mi
10:20 pm57 °FClear.8 mph88%30.09 "Hg10 mi
9:50 pm57 °FClear.6 mph88%30.09 "Hg10 mi
9:20 pm59 °FClear.7 mph82%30.09 "Hg10 mi
8:50 pm59 °FClear.5 mph77%30.09 "Hg10 mi
8:20 pm59 °FClear.5 mph77%30.09 "Hg10 mi
7:20 pm61 °FClear.8 mph72%30.09 "Hg10 mi
6:50 pm63 °FSunny.10 mph68%30.09 "Hg10 mi
6:20 pm64 °FSunny.12 mph64%30.07 "Hg10 mi
5:50 pm66 °FSunny.14 mph60%30.07 "Hg10 mi
5:20 pm68 °FSunny.13 mph56%30.07 "Hg10 mi
Weather by CustomWeather, © 2020

See weather overview